Selinsgrove, PA

4:36 PM EST on January 23, 2017 (GMT -0500)
Penn Valley

Weather History for KSEG - June, 2013

Change the Weather History Date:

Friday, June 14, 2013

  Actual Average (KIPT) Record (KIPT)
Temperature  
Mean Temperature 68 °F -  
Max Temperature 78 °F 76 °F 97 °F (1988)
Min Temperature 59 °F 55 °F 41 °F (1912)
Cooling Degree Days 4    
Growing Degree Days 18 (Base 50)    
Moisture  
Dew Point 55 °F    
Average Humidity 70    
Maximum Humidity 93    
Minimum Humidity 42    
Precipitation  
Precipitation 0.01 in - - ()
Sea Level Pressure  
Sea Level Pressure 29.82 in    
Wind  
Wind Speed 9 mph (North)    
Max Wind Speed 15 mph    
Max Gust Speed 22 mph    
Visibility 10 miles    
Events Rain    
Averages and records for this station are not official NWS values.
T = Trace of Precipitation, MM = Missing Value Source: NWS Daily Summary

Daily Weather History Graph

Daily Weather History Graph

Search for Another Location

Airport or City:

Trip Planner

Search our weather history database for the weather conditions in past years. The results will help you decide how hot, cold, wet, or windy it might be!

Date:

Astronomy

Jun. 14, 2013 Rise Set
Actual Time 5:35 AM EDT 8:40 PM EDT
Civil Twilight 5:01 AM EDT 9:13 PM EDT
Nautical Twilight 4:19 AM EDT 9:56 PM EDT
Astronomical Twilight 3:28 AM EDT 10:46 PM EDT
Moon 11:10 AM EDT (6/14) No Moon Set
Length of Visible Light 16h 12m
Length of Day
15h 05m
Waxing Crescent, 30% of the Moon is Illuminated
Jun 14
Waxing Crescent
Jun 16
First Quarter
Jun 23
Full
Jun 30
Last Quarter
Jul 8
New

Hourly Weather History & Observations

Time (EDT) Temp. Dew Point Humidity Pressure Visibility Wind Dir Wind Speed Gust Speed Precip Events Conditions
12:53 AM 59.0 °F 55.0 °F 87% 29.68 in 5.0 mi North 13.8 mph 21.9 mph 0.00 in Rain Light Rain
1:03 AM 59.0 °F 55.4 °F 88% 29.69 in 7.0 mi North 11.5 mph 19.6 mph 0.00 in Rain Light Rain
1:53 AM 60.1 °F 54.0 °F 80% 29.70 in 10.0 mi North 11.5 mph - 0.00 in   Overcast
2:53 AM 59.0 °F 55.0 °F 87% 29.71 in 10.0 mi North 8.1 mph - 0.00 in Rain Light Rain
3:14 AM 59.0 °F 53.6 °F 82% 29.71 in 10.0 mi North 6.9 mph - 0.01 in Rain Light Rain
3:53 AM 60.1 °F 54.0 °F 80% 29.72 in 10.0 mi North 5.8 mph - 0.01 in   Overcast
4:02 AM 60.8 °F 53.6 °F 77% 29.73 in 10.0 mi North 6.9 mph - N/A   Overcast
4:53 AM 60.1 °F 53.1 °F 78% 29.73 in 10.0 mi North 11.5 mph - 0.00 in   Overcast
5:41 AM 60.8 °F 53.6 °F 77% 29.77 in 10.0 mi North 9.2 mph - N/A   Overcast
5:53 AM 61.0 °F 54.0 °F 78% 29.77 in 10.0 mi North 8.1 mph - N/A   Overcast
6:05 AM 60.8 °F 53.6 °F 77% 29.78 in 10.0 mi North 6.9 mph - N/A   Overcast
6:53 AM 61.0 °F 54.0 °F 78% 29.80 in 10.0 mi North 5.8 mph - N/A   Overcast
7:53 AM 61.0 °F 55.0 °F 81% 29.83 in 10.0 mi NNW 4.6 mph - N/A   Overcast
8:53 AM 63.0 °F 55.0 °F 75% 29.85 in 10.0 mi Calm Calm - N/A   Overcast
9:53 AM 66.0 °F 54.0 °F 65% 29.86 in 10.0 mi NW 5.8 mph - N/A   Mostly Cloudy
10:53 AM 69.1 °F 55.0 °F 61% 29.87 in 10.0 mi North 8.1 mph - N/A   Scattered Clouds
11:53 AM 72.0 °F 55.9 °F 57% 29.87 in 10.0 mi Variable 5.8 mph - N/A   Partly Cloudy
12:53 PM 75.0 °F 55.0 °F 50% 29.87 in 10.0 mi North 11.5 mph 17.3 mph N/A   Partly Cloudy
1:53 PM 75.9 °F 55.9 °F 50% 29.86 in 10.0 mi North 9.2 mph - N/A   Partly Cloudy
2:53 PM 77.0 °F 52.0 °F 42% 29.86 in 10.0 mi WNW 15.0 mph 21.9 mph N/A   Scattered Clouds
3:53 PM 78.1 °F 55.0 °F 45% 29.86 in 10.0 mi NNW 12.7 mph - N/A   Scattered Clouds
4:53 PM 78.1 °F 53.1 °F 42% 29.86 in 10.0 mi NNW 10.4 mph - N/A   Clear
5:53 PM 78.1 °F 54.0 °F 43% 29.87 in 10.0 mi NNW 11.5 mph 17.3 mph N/A   Clear
6:53 PM 73.0 °F 54.0 °F 51% 29.88 in 10.0 mi North 9.2 mph - N/A   Partly Cloudy
7:53 PM 72.0 °F 55.9 °F 57% 29.90 in 10.0 mi NNE 3.5 mph - N/A   Partly Cloudy
8:53 PM 66.0 °F 57.9 °F 75% 29.92 in 10.0 mi Calm Calm - N/A   Clear
9:53 PM 63.0 °F 59.0 °F 87% 29.95 in 10.0 mi Calm Calm - N/A   Clear
10:53 PM 61.0 °F 57.9 °F 90% 29.97 in 10.0 mi Calm Calm - N/A   Clear
11:53 PM 59.0 °F 57.0 °F 93% 29.98 in 10.0 mi Calm Calm - N/A   Clear